TimePDT,TemperatureF,Dew PointF,Humidity,Sea Level PressureIn,VisibilityMPH,Wind Direction,Wind SpeedMPH,Gust SpeedMPH,PrecipitationIn,Events,Conditions,WindDirDegrees,DateUTC
12:53 AM,39.9,36.0,86,30.14,10.0,NE,3.5,-,N/A,,Clear,50,2013-05-31 07:53:00
1:53 AM,39.0,36.0,89,30.14,10.0,Calm,Calm,-,N/A,,Mostly Cloudy,0,2013-05-31 08:53:00
2:53 AM,37.0,36.0,96,30.16,10.0,NE,3.5,-,N/A,,Mostly Cloudy,50,2013-05-31 09:53:00
3:53 AM,37.0,35.1,93,30.17,10.0,Calm,Calm,-,N/A,,Mostly Cloudy,0,2013-05-31 10:53:00
4:53 AM,39.0,36.0,89,30.19,10.0,Calm,Calm,-,N/A,,Mostly Cloudy,0,2013-05-31 11:53:00
5:53 AM,37.0,35.1,93,30.22,10.0,Calm,Calm,-,N/A,,Partly Cloudy,0,2013-05-31 12:53:00
6:53 AM,45.0,39.9,82,30.23,10.0,SSE,5.8,-,N/A,,Clear,160,2013-05-31 13:53:00
7:53 AM,48.0,39.0,71,30.25,10.0,South,6.9,-,N/A,,Clear,180,2013-05-31 14:53:00
8:53 AM,51.1,39.0,63,30.28,10.0,SSW,8.1,-,N/A,,Clear,200,2013-05-31 15:53:00
9:53 AM,54.0,39.9,59,30.27,10.0,SSW,8.1,-,N/A,,Clear,210,2013-05-31 16:53:00
10:53 AM,57.0,41.0,55,30.27,10.0,South,6.9,-,N/A,,Partly Cloudy,190,2013-05-31 17:53:00
11:53 AM,61.0,42.1,50,30.27,10.0,South,11.5,18.4,N/A,,Clear,170,2013-05-31 18:53:00
12:53 PM,62.1,39.9,44,30.26,10.0,South,6.9,-,N/A,,Partly Cloudy,170,2013-05-31 19:53:00
1:53 PM,64.9,37.0,36,30.25,10.0,SSW,8.1,-,N/A,,Mostly Cloudy,210,2013-05-31 20:53:00
2:53 PM,64.0,36.0,35,30.25,10.0,WSW,11.5,-,N/A,,Mostly Cloudy,240,2013-05-31 21:53:00
3:26 PM,60.8,41.0,48,30.25,10.0,NW,13.8,-,N/A,,Overcast,320,2013-05-31 22:26:00
3:53 PM,61.0,42.1,50,30.27,10.0,WNW,9.2,-,N/A,,Overcast,300,2013-05-31 22:53:00
4:53 PM,61.0,41.0,48,30.27,10.0,NW,4.6,-,N/A,,Overcast,310,2013-05-31 23:53:00
5:53 PM,64.9,37.0,36,30.25,10.0,Calm,Calm,-,N/A,,Scattered Clouds,0,2013-06-01 00:53:00
6:53 PM,64.0,37.0,37,30.24,10.0,Calm,Calm,-,N/A,,Clear,0,2013-06-01 01:53:00
7:53 PM,63.0,37.0,38,30.23,10.0,Calm,Calm,-,N/A,,Clear,0,2013-06-01 02:53:00
8:53 PM,51.1,43.0,74,30.25,10.0,Calm,Calm,-,N/A,,Clear,0,2013-06-01 03:53:00
9:53 PM,45.0,39.9,82,30.26,10.0,Calm,Calm,-,N/A,,Clear,0,2013-06-01 04:53:00
10:53 PM,41.0,37.0,86,30.27,10.0,Calm,Calm,-,N/A,,Clear,0,2013-06-01 05:53:00
11:53 PM,39.9,37.0,89,30.26,10.0,Calm,Calm,-,N/A,,Clear,0,2013-06-01 06:53:00